Location: ??????
(41.3747°N, 22.5491°E)
Time: 05:50:10
(UTC+00:00)

ERS-2 - Pass Details

Date: 01 December 2020
Orbit: 492 x 498 km, 98.6° (Epoch: 20 January)

Event Time Altitude Azimuth Distance (km) Brightness Sun altitude
Exits shadow 16:36:35 11° 7° (N) 1,641 4.5 -17.5°
Maximum altitude 16:40:03 65° 287° (WNW) 554 2.5 -18.1°
Drops below altitude 10° 16:43:40 10° 204° (SSW) 1,695 5.3 -18.8°
Sets 16:45:44 0° 202° (SSW) 2,572 6.2 -19.1°
